[[{"header":{"parameterUnit":"m.s-1","parameterCategory":1,"la1":30.2991,"la2":30.254,"lo1":-89.0895,"lo2":-89.0444,"dy":0.0017,"dx":0.0017,"nx":28,"ny":28,"refTime":"2025-11-12T03:00:00:Z","depth":0,"parameterNumber":2,"parameterNumberName":"U-component_of_WINDS"},"data":[0,0,0,0,0,0,0,0,0,0,0,0,0,0,0,0,0,0,0,0,0,0,0,0,0,0,0,0,0,0,0,0,0,0,0,0,0,0,0,0,0,0,0,0,0,0,0,0,0,0,0,0,0,0,0,0,0,0,0.5792,0.5793,0,0.5835,0.5836,0.5836,0.5859,0.5859,0.5859,0.5859,0.59,0.5901,0.5902,0,0,0,0,0,0,0,0,0,0,0,0,0,0.5725,0.5726,0.5792,0.5793,0.5793,0.5835,0.5836,0.5836,0.5859,0.5859,0.5859,0.5859,0.59,0.5901,0.5902,0,0,0,0,0,0,0,0,0,0,0,0,0,0.576,0.5727,0.5792,0.581,0.5812,0.5835,0.5836,0.5837,0.5859,0.5859,0.5859,0.5859,0.5899,0.5901,0.5902,0.591,0,0,0.5907,0.5908,0,0,0,0,0,0,0,0,0.5758,0.5762,0.5807,0.5809,0.5811,0.5842,0.5827,0.5861,0.5859,0.5841,0.5859,0.5859,0.588,0.5884,0.5891,0.5912,0.5914,0.5907,0.5908,0.5909,0.5909,0,0,0,0,0,0,0,0.5755,0.5761,0.5809,0.5807,0.581,0.5814,0.5819,0.5834,0.586,0.5843,0.5844,0.5849,0.5882,0.589,0.5893,0.5915,0.5907,0.5909,0.591,0.591,0.5943,0.5942,0,0,0,0,0,0,0.5751,0.5758,0.5808,0.581,0.5784,0.5815,0.5821,0.5832,0.586,0.5864,0.5849,0.585,0.5887,0.5891,0.5894,0.5904,0.5909,0.591,0.5911,0.5943,0.5942,0.5942,0,0,0,0,0,0,0.5749,0.5755,0.5806,0.5785,0.5792,0.5816,0.5828,0.5833,0.5841,0.5865,0.5869,0.5853,0.5887,0.5892,0.5906,0.5906,0.5911,0.5912,0.5943,0.5943,0.5942,0.5926,0,0,0,0,0,0,0.5747,0.5754,0.5759,0.5785,0.5793,0.5819,0.5829,0.5833,0.5844,0.5846,0.587,0.5873,0.5888,0.5904,0.5908,0.5908,0.5914,0.5943,0.5943,0.5942,0.5926,0.5925,0.5924,0,0,0,0,0,0.5745,0.5752,0.5759,0.5765,0.5799,0.5819,0.5823,0.584,0.5844,0.5848,0.5863,0.5873,0.5905,0.5905,0.591,0.5911,0.5943,0.5943,0.5942,0.5927,0.5925,0.5924,0,0,0,0,0,0,0.5724,0.5756,0.5764,0.578,0.5796,0.5822,0.5828,0.5838,0.5853,0.5854,0.5874,0.5879,0.5891,0.5902,0.5901,0.5919,0.5925,0.5926,0.5912,0.591,0.5909,0.5906,0.5915,0,0,0,0,0,0.5722,0.5736,0.5762,0.5774,0.5782,0.5803,0.5813,0.5824,0.5842,0.5849,0.5865,0.588,0.5894,0.5903,0.5917,0.5928,0.5933,0.5931,0.593,0.5928,0.5929,0.5934,0.5933,0.5942,0.5942,0.5942,0,0,0.5717,0.5735,0.5743,0.577,0.5785,0.5798,0.5809,0.5823,0.5832,0.585,0.5865,0.5877,0.5896,0.5908,0.5914,0.5918,0.5927,0.5928,0.5927,0.5928,0.5934,0.5933,0.5932,0.5942,0.5942,0.5942,0,0,0.5714,0.573,0.5741,0.5755,0.5777,0.5791,0.5793,0.5817,0.5826,0.5841,0.5855,0.5865,0.5889,0.5901,0.5911,0.5911,0.592,0.5915,0.5908,0.5913,0.5912,0.5912,0.5911,0.5911,0.5915,0.5915,0.5915,0,0.5704,0.5726,0.5745,0.5758,0.5769,0.5786,0.5796,0.5808,0.5833,0.5839,0.5843,0.5872,0.5886,0.5901,0.5901,0.5908,0.591,0.5912,0.5911,0.5911,0.5911,0.591,0.591,0.5914,0.5914,0.5914,0.5914,0,0.5713,0.5727,0.5733,0.5757,0.5769,0.578,0.5799,0.5808,0.5818,0.5831,0.5845,0.5862,0.5879,0.5884,0.5894,0.59,0.5901,0.5908,0.5914,0.5909,0.5908,0.5908,0.5913,0.5913,0.5913,0.5913,0,0,0.57,0.5733,0.5735,0.5745,0.577,0.5781,0.5792,0.5809,0.5816,0.5832,0.5841,0.586,0.5866,0.5876,0.5887,0.5892,0.5889,0.5898,0.5899,0.5895,0.5896,0.589,0.589,0.5896,0.5896,0.5896,0.5894,0,0.57,0.5722,0.5739,0.5754,0.5767,0.5783,0.5792,0.5807,0.5819,0.5831,0.5844,0.5857,0.5864,0.587,0.5875,0.5889,0.589,0.5889,0.5903,0.5903,0.5898,0.589,0.5885,0.5882,0.5894,0.5894,0.5894,0,0.5704,0.572,0.5736,0.5758,0.5764,0.5773,0.5789,0.58,0.5817,0.5825,0.5836,0.5848,0.5859,0.5864,0.5878,0.5877,0.5884,0.5891,0.5891,0.5893,0.5898,0.5891,0.5882,0.5881,0.5894,0.5894,0.5894,0,0.5692,0.5717,0.573,0.5738,0.5764,0.577,0.578,0.5797,0.5806,0.582,0.5826,0.584,0.5848,0.5859,0.5873,0.5876,0.5886,0.5892,0.5892,0.5892,0.5894,0.5893,0.5885,0.5898,0.5898,0.5898,0.5898,0,0.569,0.57,0.5725,0.5733,0.5743,0.5761,0.5771,0.5782,0.5797,0.5806,0.582,0.5829,0.5848,0.5858,0.5869,0.5878,0.5882,0.5888,0.5891,0.5887,0.5886,0.5891,0.5892,0.5898,0.5898,0.5898,0.5898,0,0.5679,0.5696,0.5711,0.5734,0.574,0.5747,0.5765,0.5773,0.5785,0.5797,0.58,0.5819,0.5832,0.5847,0.5865,0.5872,0.588,0.5885,0.5875,0.5877,0.5875,0.5875,0.587,0.5869,0.5883,0.5883,0.5883,0,0.5677,0.5685,0.5708,0.5716,0.5726,0.5739,0.5748,0.5765,0.5774,0.5792,0.5797,0.5811,0.5823,0.5841,0.5856,0.5869,0.5873,0.5871,0.5875,0.5871,0.5873,0.5872,0.5872,0.5869,0.5869,0.5869,0.5869,0,0.5672,0.5679,0.5693,0.5708,0.5719,0.5732,0.5745,0.5751,0.577,0.5779,0.5792,0.5801,0.5819,0.5831,0.5846,0.5856,0.5865,0.5867,0.5868,0.5863,0.5857,0.586,0.5871,0.5867,0.5867,0.5868,0.5868,0.5868,0.5665,0.5672,0.5689,0.5703,0.5715,0.5726,0.5734,0.5747,0.5759,0.5775,0.5784,0.5796,0.5811,0.5832,0.5841,0.585,0.5853,0.5854,0.5854,0.5854,0.5853,0.5856,0.5852,0.5853,0.5853,0.5853,0.5853,0,0.5659,0.5671,0.5683,0.5702,0.5712,0.572,0.5735,0.5743,0.5754,0.5767,0.5779,0.5793,0.5805,0.582,0.5833,0.5837,0.5842,0.584,0.584,0.5841,0.5849,0.5847,0.5836,0.5836,0.5836,0.5836,0.5836,0.5836,0.5658,0.567,0.5679,0.5696,0.5708,0.5721,0.5728,0.5739,0.5749,0.5765,0.5775,0.5785,0.5798,0.5812,0.5823,0.5827,0.5831,0.5827,0.5832,0.5839,0.5841,0.5842,0.5841,0.5828,0.5828,0.5824,0.5824,0.5824]},{"header":{"parameterUnit":"m.s-1","parameterCategory":1,"la1":30.2991,"la2":30.254,"lo1":-89.0895,"lo2":-89.0444,"dy":0.0017,"dx":0.0017,"nx":28,"ny":28,"refTime":"2025-11-12T03:00:00:Z","depth":0,"parameterNumber":3,"parameterNumberName":"V-component_of_WINDS"},"data":[0,0,0,0,0,0,0,0,0,0,0,0,0,0,0,0,0,0,0,0,0,0,0,0,0,0,0,0,0,0,0,0,0,0,0,0,0,0,0,0,0,0,0,0,0,0,0,0,0,0,0,0,0,0,0,0,0,0,2.5976,2.5976,0,2.5953,2.5953,2.5953,2.5879,2.5878,2.5876,2.5875,2.5852,2.5853,2.5854,0,0,0,0,0,0,0,0,0,0,0,0,0,2.5956,2.5957,2.5976,2.5976,2.5975,2.5953,2.5953,2.5953,2.588,2.5878,2.5876,2.5874,2.5852,2.5853,2.5854,0,0,0,0,0,0,0,0,0,0,0,0,0,2.5952,2.5957,2.5976,2.5936,2.5932,2.5953,2.5953,2.5953,2.588,2.5878,2.5875,2.5873,2.5852,2.5853,2.5854,2.5912,0,0,2.5859,2.5859,0,0,0,0,0,0,0,0,2.5953,2.5953,2.5942,2.5939,2.5935,2.5917,2.5938,2.5939,2.5881,2.59,2.5874,2.5872,2.5876,2.5875,2.5876,2.5911,2.591,2.5859,2.586,2.586,2.5861,0,0,0,0,0,0,0,2.5953,2.5954,2.5967,2.5942,2.5938,2.592,2.5916,2.5938,2.5902,2.5898,2.5893,2.5891,2.5873,2.5875,2.5875,2.591,2.5859,2.586,2.5861,2.5861,2.5989,2.5992,0,0,0,0,0,0,2.5959,2.5954,2.5968,2.5966,2.5938,2.5922,2.5918,2.5925,2.5901,2.5896,2.5893,2.5888,2.5874,2.5874,2.5874,2.5938,2.586,2.5862,2.5862,2.5987,2.599,2.5993,0,0,0,0,0,0,2.5959,2.5961,2.5968,2.5959,2.5958,2.5925,2.5933,2.5926,2.5927,2.5898,2.5891,2.5901,2.5872,2.5872,2.5903,2.5937,2.5862,2.5863,2.5984,2.5988,2.5991,2.6069,0,0,0,0,0,0,2.5958,2.5961,2.5983,2.596,2.5959,2.5998,2.5935,2.5927,2.593,2.5923,2.5904,2.5898,2.587,2.5901,2.5904,2.5937,2.5865,2.598,2.5985,2.599,2.6063,2.6075,2.6085,0,0,0,0,0,2.5958,2.6006,2.5984,2.5986,2.5985,2.6,2.5999,2.5966,2.5933,2.5954,2.5935,2.5899,2.5933,2.5905,2.5908,2.5942,2.5978,2.5984,2.599,2.6059,2.6073,2.6085,0,0,0,0,0,0,2.6034,2.6002,2.5978,2.602,2.6013,2.5987,2.6013,2.5982,2.5985,2.5978,2.5936,2.5933,2.5969,2.5959,2.5928,2.5996,2.5949,2.5956,2.6001,2.6014,2.6025,2.6026,2.5866,0,0,0,0,0,2.6056,2.607,2.6042,2.6082,2.6079,2.6047,2.6052,2.6027,2.6018,2.6015,2.5998,2.5991,2.6,2.6007,2.6014,2.6062,2.6056,2.6087,2.6098,2.6107,2.6113,2.6136,2.6149,2.6011,2.6011,2.6011,0,0,2.6101,2.6085,2.6097,2.6097,2.6088,2.6104,2.6045,2.6064,2.6075,2.6018,2.6045,2.6033,2.6022,2.6062,2.6078,2.6054,2.615,2.6114,2.6122,2.6123,2.6143,2.6157,2.6168,2.6015,2.6015,2.6014,0,0,2.6191,2.6181,2.6212,2.6205,2.6193,2.6171,2.6179,2.6158,2.6147,2.6174,2.613,2.6143,2.616,2.6154,2.6153,2.624,2.6206,2.6243,2.63,2.6323,2.6334,2.6343,2.6373,2.6384,2.6249,2.6249,2.625,0,2.6248,2.6269,2.6232,2.6254,2.6254,2.6203,2.6234,2.6229,2.622,2.6222,2.6195,2.6214,2.6204,2.624,2.6261,2.6263,2.6269,2.6244,2.6335,2.6344,2.6353,2.638,2.6392,2.6254,2.6253,2.6253,2.6252,0,2.634,2.6355,2.6382,2.6374,2.6378,2.6404,2.6371,2.6379,2.6354,2.6334,2.6362,2.6348,2.635,2.6357,2.6332,2.639,2.6375,2.6343,2.6295,2.6371,2.6396,2.6406,2.626,2.6259,2.6257,2.6256,0,0,2.6476,2.6447,2.6457,2.6452,2.6435,2.6446,2.647,2.6471,2.6479,2.6475,2.6493,2.6508,2.6477,2.6477,2.6451,2.6472,2.6539,2.6436,2.6435,2.6455,2.66,2.6623,2.6636,2.6518,2.652,2.6521,2.66,0,2.656,2.6598,2.6565,2.661,2.6623,2.6574,2.6594,2.6586,2.6569,2.6578,2.6559,2.6569,2.6529,2.6528,2.6547,2.6527,2.6568,2.6521,2.6533,2.6534,2.6536,2.665,2.6674,2.675,2.661,2.6612,2.6613,0,2.6662,2.6661,2.6707,2.6685,2.669,2.6709,2.6707,2.6716,2.6705,2.6691,2.669,2.6659,2.668,2.6635,2.6663,2.6633,2.6636,2.6627,2.6629,2.6628,2.6577,2.665,2.6773,2.6784,2.6628,2.6627,2.6626,0,2.6755,2.6766,2.6794,2.6791,2.6767,2.6782,2.6773,2.6759,2.6762,2.6761,2.6762,2.6764,2.6765,2.6767,2.6736,2.6706,2.6768,2.6721,2.6757,2.6757,2.6771,2.677,2.6895,2.6776,2.6776,2.6775,2.6775,0,2.6851,2.688,2.6835,2.6852,2.6883,2.6845,2.6877,2.6863,2.6852,2.6865,2.6824,2.6838,2.6797,2.6807,2.6783,2.681,2.6811,2.68,2.6793,2.6802,2.6803,2.6803,2.6796,2.6778,2.6778,2.6777,2.6777,0,2.6959,2.693,2.6957,2.6932,2.6927,2.6951,2.6929,2.6944,2.6924,2.6941,2.6943,2.6912,2.6921,2.6891,2.6895,2.6879,2.6918,2.6903,2.6921,2.6916,2.6953,2.6949,2.7081,2.7095,2.6969,2.697,2.6971,0,2.7021,2.7042,2.7019,2.7025,2.7018,2.7028,2.703,2.6994,2.6998,2.6987,2.7003,2.7008,2.701,2.7026,2.7004,2.7007,2.6991,2.7037,2.6991,2.6999,2.6989,2.6988,2.6989,2.7046,2.7047,2.7048,2.705,0,2.7134,2.7118,2.7123,2.7122,2.7126,2.7124,2.7119,2.7127,2.7087,2.7094,2.7102,2.7104,2.7107,2.7113,2.711,2.7101,2.7069,2.7064,2.7072,2.7082,2.709,2.7084,2.6945,2.7061,2.706,2.7059,2.7058,2.7058,2.722,2.7236,2.7222,2.7228,2.722,2.7217,2.7229,2.721,2.7216,2.7215,2.7194,2.7206,2.7194,2.7188,2.7182,2.719,2.7169,2.7181,2.7184,2.7187,2.7193,2.7091,2.719,2.719,2.7189,2.7189,2.7189,0,2.7329,2.7317,2.7323,2.7317,2.7322,2.7291,2.7284,2.729,2.7301,2.7293,2.7295,2.7304,2.7309,2.7287,2.7289,2.73,2.7285,2.7302,2.7299,2.7298,2.7213,2.7205,2.7313,2.7313,2.7313,2.7313,2.7313,2.7313,2.7386,2.7411,2.7394,2.7414,2.7402,2.7413,2.7412,2.7408,2.7401,2.7412,2.7416,2.7401,2.7387,2.7387,2.739,2.7384,2.7386,2.7407,2.7395,2.7316,2.7304,2.7292,2.7284,2.7408,2.7408,2.7479,2.748,2.748]}]]